Weather History for KLRD - April, 2014

Change the Weather History Date:

Wednesday, April 2, 2014

  Actual Average Record
Temperature  
Mean Temperature 88 °F 73 °F  
Max Temperature 100 °F 85 °F 105 °F (1939)
Min Temperature 75 °F 61 °F 40 °F (1909)
Degree Days  
Heating Degree Days 0 1  
Month to date heating degree days 0 2  
Since 1 July heating degree days 1090 915  
Cooling Degree Days 23 9  
Month to date cooling degree days 38 18  
Year to date cooling degree days 286 276  
Growing Degree Days 37 (Base 50)    
Moisture  
Dew Point 66 °F    
Average Humidity 59    
Maximum Humidity 79    
Minimum Humidity 23    
Precipitation  
Precipitation 0.00 in 0.03 in 2.00 in (1904)
Month to date precipitation 0.00 0.06  
Year to date precipitation 1.29 3.02  
Sea Level Pressure  
Sea Level Pressure 29.74 in    
Wind  
Wind Speed 13 mph (SSE)    
Max Wind Speed 24 mph    
Max Gust Speed 29 mph    
Visibility 9 miles    
Events      
T = Trace of Precipitation, MM = Missing Value Source: NWS Daily Summary

Daily Weather History Graph

Daily Weather History Graph

Search for Another Location

Airport or City:

Trip Planner

Search our weather history database for the weather conditions in past years. The results will help you decide how hot, cold, wet, or windy it might be!

Date:

Astronomy

Apr. 02, 2014 Rise Set
Actual Time 7:27 AM CDT 7:55 PM CDT
Civil Twilight 7:03 AM CDT 8:19 PM CDT
Nautical Twilight 6:36 AM CDT 8:47 PM CDT
Astronomical Twilight 6:08 AM CDT 9:14 PM CDT
Moon 9:27 AM CDT (4/2) 11:04 PM CDT (4/2)
Length of Visible Light 13h 15m
Length of Day
12h 28m
Waxing Crescent, 10% of the Moon is Illuminated
Apr 2
Waxing Crescent
Apr 7
First Quarter
Apr 15
Full
Apr 22
Last Quarter
Apr 29
New

Hourly Weather History & Observations

Time (CDT) Temp. Heat Index Dew Point Humidity Pressure Visibility Wind Dir Wind Speed Gust Speed Precip Events Conditions
12:56 AM 77.0 °F - 68.9 °F 76% 29.81 in 9.0 mi SE 17.3 mph 28.8 mph N/A   Overcast
1:56 AM 77.0 °F - 68.9 °F 76% 29.79 in 9.0 mi SE 16.1 mph - N/A   Overcast
2:56 AM 77.0 °F - 68.9 °F 76% 29.79 in 9.0 mi SSE 15.0 mph - N/A   Overcast
3:56 AM 75.9 °F - 68.9 °F 79% 29.78 in 9.0 mi SSE 15.0 mph - N/A   Overcast
4:56 AM 75.9 °F - 68.9 °F 79% 29.78 in 8.0 mi South 16.1 mph - N/A   Overcast
5:56 AM 75.9 °F - 68.9 °F 79% 29.76 in 8.0 mi SSE 15.0 mph - N/A   Overcast
7:56 AM 75.9 °F - 68.9 °F 79% 29.78 in 7.0 mi SSE 10.4 mph - N/A   Overcast
8:56 AM 75.9 °F - 68.9 °F 79% 29.80 in 8.0 mi SSE 10.4 mph - N/A   Overcast
9:33 AM 75.2 °F - 69.8 °F 83% 29.83 in 7.0 mi SSE 9.2 mph - N/A   Overcast
9:56 AM 77.0 °F - 68.9 °F 76% 29.79 in 8.0 mi SSE 11.5 mph - N/A   Mostly Cloudy
10:25 AM 78.8 °F - 69.8 °F 74% 29.82 in 8.0 mi SSE 12.7 mph - N/A   Mostly Cloudy
10:34 AM 78.8 °F - 68.0 °F 69% 29.83 in 8.0 mi SSE 13.8 mph - N/A   Mostly Cloudy
10:56 AM 79.9 °F - 68.9 °F 69% 29.80 in 8.0 mi South 17.3 mph - N/A   Mostly Cloudy
11:56 AM 83.8 °F 88.1 °F 70.0 °F 63% 29.79 in 9.0 mi South 11.5 mph - N/A   Mostly Cloudy
12:16 PM 87.8 °F 92.6 °F 69.8 °F 55% 29.81 in 9.0 mi South 9.2 mph - N/A   Scattered Clouds
12:56 PM 86.9 °F 91.0 °F 68.9 °F 55% 29.76 in 10.0 mi SSE 11.5 mph - N/A   Partly Cloudy
1:56 PM 92.8 °F 96.1 °F 66.9 °F 42% 29.73 in 10.0 mi SW 10.4 mph 17.3 mph N/A   Clear
2:56 PM 95.0 °F 97.0 °F 63.9 °F 36% 29.69 in 10.0 mi Variable 5.8 mph - N/A   Clear
3:56 PM 97.9 °F 96.6 °F 56.8 °F 25% 29.66 in 10.0 mi SSW 9.2 mph - N/A   Clear
4:56 PM 99.9 °F 98.5 °F 55.9 °F 23% 29.63 in 10.0 mi SW 9.2 mph - N/A   Clear
5:56 PM 99.9 °F 99.0 °F 56.8 °F 24% 29.62 in 10.0 mi SSE 10.4 mph - N/A   Clear
6:56 PM 97.0 °F 95.7 °F 56.8 °F 26% 29.62 in 10.0 mi SSE 15.0 mph - N/A   Clear
7:56 PM 92.8 °F 92.8 °F 61.0 °F 34% 29.63 in 10.0 mi SE 16.1 mph - N/A   Clear
8:56 PM 90.0 °F 90.6 °F 63.0 °F 40% 29.65 in 10.0 mi SE 15.0 mph - N/A   Clear
9:56 PM 86.9 °F 88.6 °F 64.9 °F 48% 29.69 in 10.0 mi SE 13.8 mph - N/A   Clear
10:56 PM 83.8 °F 88.6 °F 70.9 °F 65% 29.70 in 10.0 mi SE 20.7 mph - N/A   Clear
11:56 PM 81.0 °F 84.4 °F 70.0 °F 69% 29.70 in 10.0 mi SE 16.1 mph - N/A   Clear